SCP
0 0 0 0 0 0 0 0 0 0 -0 -0 -0 -0 -0 -0 0 0 0 0 0 0 0 0 0 0 0 0 0 0 0 0 0 0 0 0 0 0 0 0 0 0 0 0
0 0 0 0 0 0 0 0 0 0 -0 0 -0 0 0 0 0 0 0 0 0 0 0 0 0 0 0 0 0 0 0 0 0 0 0 0 0 0 0 0 0 0 0 0
0 0 0 0 0 0 0 0 0 0 0 0 0 0 0 0 0 0 0 0 0 0 0 0 0 0 0 0 0 0 0 0 0 0 0 0 0 0 0 0 0 0 0 0
0 0 0 0 0 0 0 0 0 0 0 0 0 0 0 0 0 0 0 0 0 0 0 0 0 0 0 0 0 0 0 0 0 0 0 0 0 0 0 0 0 0 0 0
0 0 0 0 0 0 0 0 -0 -0 0 0 0 0 0 0 0 0 0 0 0 0 0 0 0 0 0 0 0 0 0 0 0 0 0 0 0 0 0 0 0 0 0 0
0 0 -0 0 0 0 0 0 0 0 0 0 0 0 0 0 0 0 0 0 0 0 0 0 0 0 0 0 0 0 0 0 0 0 0 0 0 0 0 0 0 0 0 0
0 0 0 0 0 0 0 0 0 0 0 0 0 0 0 0 0 0 0 0 0 0 0 0 0 0 0 0 0 0 0 0 0 0 0 0 0 0 0 0 0 0 0 0
0 0 0 0 0 0 0 0 -0 0 0 0 0 0 0 0 0 0 0 0 0 0 0 0 0 0 0 0 0 0 0 0 0 0 0 0 0 0 0 0 0 0 0 0
0 0 0 -0 -0 -0 0 -0 -0 -0 0 0 0 0 0 0 0 0 0 0 0 0 0 0 0 0 0 0 0 0 0 0 0 0 0 0 0 0 0 0 0 -0 0 0
0 0 0 -0 -0 -0 0 -0 -0 -0 0 0 0 0 0 0 0 0 0 0 0 0 0 0 0 0 0 0 0 0 0 0 0 0 0 0 0 0 -0 -0 0 -0 -0 0
0 0 0 -0 -0 -0 -0 -0 -0 0 0 0 0 0 0 0 0 0 0 0 0 0 0 0 0 0 0 0 0 0 0 0 0 0 0 0 0 -0 -0 -0 0 -0 -0 0
0 0 0 -0 -0 -0 -0 -0 0 -0 0 0 0 0 0 0 0 0 0 0 0 0 0 0 0 0 0 0 0 0 0 0 0 0 0 0 0 0 -0 0 -0 0 0 0
0 0 0 -0 0 0 0 0 0 0 0 0 0 0 0 0 0 0 0 0 0 0 0 0 0 0 0 0 0 0 0 0 0 0 0 0 0 0 0 0 0 0 0 0
0 0 -0 -0 0 0 0 0 0 0 0 0 0 0 -0 -0 -0 0 0 0 0 0 0 0 0 0 0 0 0 0 0 0 0 0 0 0 0 0 0 0 0 0 0 0
0 0 0 0 -0 0 0 0 0 0 0 0 0 -0 -0 -0 0 0 0 0 0 0 0 0 0 0 0 0 0 0 0 0 0 0 0 0 0 0 0 0 0 0 0 0
-0 0 0 -0 -0 -0 0 0 0 0 0 0 0 0 0 0 0 0 0 0 0 0 0 0 0 0 0 0 0 0 0 0 0 0 0 0 0 0 0 0 0 0 0 0
-0 -0 0 -0 0 0 0 0 0 0 0 0 0 -0 -0 -0 -0 -0 0 0 0 0 0 0 0 0 0 0 0 0 0 0 0 0 0 0 0 0 0 0 0 0 0 0
0 0 -0 -0 -0 0 0 0 0 0 0 0 -0 -0 -0 -0 -0 0 0 0 0 0 0 0 0 0 0 0 0 0 0 0 0 0 0 0 0 0 0 0 0 0 0 0
-0 -0 -0 -0 -0 0 0 0 -0 -0 -0 -0 -0 -0 0 0 -0 0 0 0 0 0 0 0 0 0 0 0 0 0 0 0 0 0 0 0 0 0 0 0 0 0 0 0
0 0 -0 -0 -0 -0 0 -0 -0 -0 -0 -0 -0 -0 0 0 0 0 0 0 0 0 0 0 0 0 0 0 0 0 0 0 0 0 0 0 0 0 0 0 0 0 0 0
-0 0 -0 -0 -0 0 -0 -0 -0 -0 0 -0 -0 0 0 0 0 0 0 0 0 0 0 0 0 0 0 0 0 0 0 0 0 0 0 0 0 0 0 0 0 0 0 0
0 0 -0 -0 -0 -0 -0 -0 0 0 0 0 0 0 0 0 0 0 0 0 0 0 0 0 0 0 0 0 0 0 0 0 0 0 0 0 0 0 0 0 0 0 0 0
0 0 0 0 -0 0 0 0 0 -0 0 0 0 0 0 0 0 0 0 0 0 0 0 0 0 0 0 0 0 0 0 0 0 0 0 0 0 0 0 0 0 0 0 0
0 0 0 0 0 0 0 0 0 0 0 0 0 0 0 0 0 0 0 0 0 0 0 0 0 0 0 0 0 0 0 0 0 0 0 0 0 0 0 0 0 0 0 0
0 0 0 0 0 0 0 0 0 0 0 0 0 0 0 0 0 0 0 0 0 0 0 0 0 0 0 0 0 0 0 0 0 0 0 0 0 0 0 0 0 0 0 0
0 0 0 0 0 0 0 0 0 0 0 0 0 0 0 0 0 0 0 0 0 0 0 0 0 0 0 0 0 0 0 0 0 0 0 0 0 0 0 0 0 0 0 0
0 0 0 0 0 0 0 0 0 0 0 0 0 0 0 0 0 0 0 0 0 0 0 0 0 0 0 0 0 0 0 0 0 0 0 0 0 0 0 0 0 0 0 0
Wind_Speed_500mb
21 21 18 19 16 15 18 22 15 29 29 30 9 19 34 28 26 50 56 57 64 71 68 58 51 43 36 31 26 21 15 9 5 5 4 3 4 6 9 10 18 26 26 26
16 29 14 19 21 18 15 18 20 23 23 15 25 40 33 43 41 47 52 76 81 87 81 73 62 49 38 31 27 21 16 12 6 5 3 2 5 4 6 11 17 23 28 28
10 18 6 11 20 18 7 7 11 12 22 15 21 15 10 22 40 54 56 74 91 97 90 76 61 49 39 35 29 22 17 12 7 8 2 3 4 2 6 15 22 25 26 24
6 10 10 13 6 5 12 9 10 11 20 23 8 1 24 22 21 30 36 67 86 93 89 74 55 43 38 32 29 26 22 13 11 8 4 3 3 5 11 18 23 23 23 26
5 10 11 19 2 2 4 13 16 12 19 8 15 1 12 22 7 11 21 50 75 73 76 59 56 48 40 36 33 29 19 14 13 9 7 5 6 10 12 16 16 19 23 25
8 9 7 14 5 11 8 18 12 20 15 8 7 7 8 1 9 23 32 43 65 77 63 62 50 40 40 40 37 28 21 17 15 12 5 8 10 10 12 12 15 21 23 24
15 13 10 4 9 13 6 13 16 21 36 32 10 15 17 26 24 20 31 52 60 61 57 49 46 45 47 44 32 26 22 18 18 10 5 9 8 7 8 10 14 20 26 25
6 8 11 5 17 2 6 23 29 35 40 27 21 17 33 40 35 40 47 48 55 68 57 46 49 52 45 36 32 29 25 18 18 10 4 5 4 8 11 13 15 21 29 29
14 11 11 22 13 22 22 20 29 41 40 22 24 36 46 40 39 44 52 55 53 55 59 58 51 47 41 38 35 32 25 21 20 13 8 4 4 10 14 16 18 22 28 36
4 6 10 22 36 33 22 36 37 30 28 22 34 42 46 43 46 50 50 57 60 61 56 57 51 43 36 41 37 32 28 22 19 15 10 5 5 10 13 16 19 25 29 36
10 9 25 30 17 29 36 35 34 32 32 35 32 53 56 53 55 58 61 60 60 60 59 55 51 46 41 40 38 36 31 25 22 16 11 7 5 7 14 16 20 25 29 34
13 16 25 28 49 40 41 41 53 38 36 42 53 67 61 60 62 66 68 69 62 58 56 54 50 47 45 41 37 33 32 26 23 18 16 10 5 5 6 11 16 20 25 27
39 47 51 58 64 60 47 48 36 23 35 50 58 65 68 68 66 67 64 55 50 54 52 51 48 49 46 44 37 33 31 29 23 21 18 14 11 9 6 4 5 10 20 23
57 50 42 55 38 28 36 25 24 28 38 50 66 63 72 72 68 64 55 50 51 48 50 48 45 49 48 41 33 30 29 26 25 23 20 15 9 6 5 6 8 11 17 25
69 62 57 55 33 26 27 29 26 35 48 51 56 64 63 61 57 53 48 52 49 46 48 44 41 42 46 42 34 30 29 27 28 25 19 13 9 9 10 11 12 16 22 27
29 22 13 25 28 36 36 38 39 42 47 50 52 49 51 53 54 53 58 57 55 55 47 41 36 36 40 39 35 32 30 30 27 21 16 14 13 13 12 13 16 20 25 28
41 25 38 47 40 38 47 45 39 44 50 53 53 49 48 51 55 61 58 53 46 42 40 37 36 37 37 38 36 34 32 29 23 20 19 19 20 18 16 17 19 22 26 30
46 49 44 42 40 50 55 45 42 45 55 58 56 52 56 56 60 60 55 53 52 47 41 36 37 38 39 38 37 35 30 25 24 21 20 21 22 21 20 21 22 24 28 32
63 69 70 61 50 51 60 51 47 49 54 59 58 56 54 52 52 53 55 56 55 51 46 44 45 45 44 43 40 34 31 27 26 25 24 22 22 23 24 25 25 28 31 34
36 40 43 53 53 57 59 53 46 53 53 56 51 49 51 50 50 53 56 57 52 45 43 47 48 48 46 41 37 33 30 31 29 28 29 28 28 28 27 26 28 31 33 34
24 23 40 47 54 54 53 42 49 57 58 53 49 49 46 43 42 44 50 52 46 41 42 44 46 45 45 43 41 40 35 33 33 34 31 28 28 28 28 30 32 33 32 33
15 5 29 45 50 49 42 41 50 52 53 51 46 39 40 40 38 38 37 36 37 43 43 43 44 43 41 39 42 41 36 31 29 32 33 31 29 28 29 31 31 31 32 35
5 11 27 37 39 37 37 40 45 44 48 49 43 40 41 38 38 40 41 37 39 41 40 38 37 40 39 37 41 42 39 35 31 32 34 32 30 30 29 28 30 31 35 38
7 12 15 18 19 28 41 45 41 40 38 35 35 35 35 38 39 37 35 31 31 34 32 35 35 40 40 36 35 38 39 35 33 33 33 30 27 27 29 31 32 35 38 41
9 15 21 24 29 39 44 43 41 41 40 37 36 36 35 34 32 29 35 35 33 30 30 32 37 39 40 38 38 40 39 35 31 28 24 24 26 30 31 31 32 35 38 43
10 14 18 21 28 36 39 41 41 41 40 40 39 38 36 33 32 32 31 34 32 30 29 31 37 39 37 37 37 40 38 32 27 26 27 26 23 23 26 27 31 36 41 45
10 13 17 20 25 28 29 29 31 33 35 35 33 33 32 34 33 30 29 31 28 26 27 29 34 35 34 36 37 38 34 26 23 23 22 21 24 25 28 34 37 40 45 48
Wind_Direction_500mb
258 264 241 242 257 230 210 257 269 273 267 272 201 218 205 226 232 206 206 201 208 195 187 184 180 175 177 175 174 180 187 208 231 290 302 7 355 359 3 350 340 345 348 347
267 263 267 281 275 273 266 259 252 259 263 279 248 244 211 211 223 232 219 209 206 197 190 187 185 180 178 174 180 186 195 201 224 243 199 60 30 357 323 340 346 344 347 347
266 256 322 313 240 232 188 230 233 254 274 297 289 300 306 262 236 232 237 215 198 189 184 182 184 181 178 179 177 189 195 184 186 192 156 36 66 67 352 355 348 349 349 348
272 304 211 245 259 273 232 238 274 307 299 300 264 145 25 8 325 296 255 203 189 184 185 182 179 174 177 180 181 183 177 175 172 166 137 124 96 33 5 350 347 351 355 354
235 242 273 295 6 124 24 299 312 299 307 8 331 217 345 358 322 245 211 188 188 184 180 174 176 176 173 170 176 175 178 167 162 159 137 120 48 21 4 354 355 4 8 4
152 242 247 272 68 78 21 304 43 349 317 288 311 343 267 329 185 161 169 182 187 182 189 184 180 181 168 166 177 175 174 159 159 165 126 71 43 20 10 11 27 25 20 16
226 238 258 298 352 349 180 265 6 348 332 309 238 247 217 179 166 173 179 175 174 184 184 183 177 168 165 172 173 169 162 160 166 165 100 53 38 39 38 40 37 36 28 26
170 222 254 274 336 15 230 312 310 298 295 294 268 195 171 173 165 168 164 165 172 170 177 173 165 170 170 170 170 166 163 169 172 161 106 71 50 64 61 59 51 43 37 32
166 208 228 302 274 311 297 296 315 298 276 247 216 181 185 181 177 172 165 165 168 162 159 165 174 180 177 170 173 171 173 173 179 171 152 111 87 72 71 66 55 44 35 29
111 220 207 282 299 292 274 317 322 301 245 232 203 193 190 186 174 167 169 168 169 163 160 162 173 185 188 175 183 181 183 180 180 186 162 143 110 70 63 50 41 32 23 21
260 290 278 270 261 301 301 301 304 290 263 228 217 197 196 183 176 171 168 168 167 163 165 165 173 178 181 181 188 188 184 179 184 185 183 166 128 79 46 28 26 12 9 4
256 236 256 259 281 296 283 287 297 284 240 213 207 200 194 183 182 174 172 170 175 179 175 171 182 182 178 186 197 197 185 182 187 188 191 186 168 93 47 19 18 343 338 352
257 269 262 270 280 284 271 288 280 251 231 210 202 198 191 180 175 176 177 185 187 176 182 186 187 187 189 192 196 194 193 189 189 193 191 189 184 185 181 191 235 278 317 346
269 265 274 271 259 258 276 252 266 266 227 212 198 190 180 177 180 189 199 193 180 188 193 193 192 192 193 196 190 188 187 187 194 192 189 186 196 220 249 279 296 318 332 343
261 262 268 268 254 253 251 242 228 203 191 189 193 191 189 190 191 190 189 185 190 195 195 197 197 195 194 200 197 193 190 197 193 189 186 197 216 238 264 281 301 319 328 333
257 237 225 277 287 257 230 213 212 198 192 189 189 190 190 192 188 183 185 191 197 197 199 201 203 198 191 188 192 195 194 201 198 193 202 219 236 248 264 290 307 316 322 328
225 265 253 255 247 231 219 221 221 207 195 191 185 189 187 185 185 187 193 200 205 208 208 211 207 197 194 192 193 195 198 206 203 200 214 232 244 256 274 295 306 315 322 327
242 252 256 260 253 219 217 224 216 212 201 195 191 192 190 196 198 197 199 197 198 206 213 212 203 199 196 195 199 197 199 212 219 227 230 231 244 259 277 290 301 312 320 322
254 254 255 253 245 234 224 222 217 212 207 199 200 199 203 205 205 205 203 204 209 213 212 205 202 200 202 204 209 208 213 222 231 237 242 248 251 264 277 282 295 306 313 319
269 261 252 240 228 223 215 216 218 208 206 203 202 199 202 208 211 212 214 218 223 224 212 207 205 205 205 207 215 223 230 237 240 243 250 254 256 264 275 283 294 300 308 316
311 265 236 212 205 205 206 211 208 203 202 206 201 203 209 210 209 210 212 215 214 211 209 210 212 209 209 215 224 228 231 240 244 244 249 257 264 272 278 285 292 298 305 317
344 210 185 187 189 188 198 208 204 202 200 196 200 209 208 205 205 208 218 224 214 210 209 211 214 215 216 221 226 230 238 243 250 253 254 261 269 276 283 286 292 302 311 318
350 175 177 179 182 191 200 200 198 200 197 196 200 206 210 214 213 212 218 215 212 217 219 220 218 218 222 226 228 232 239 250 258 260 261 263 269 276 286 287 298 309 318 319
231 202 192 196 207 207 192 186 190 191 193 198 208 214 216 215 218 224 234 232 221 218 219 221 222 222 228 230 231 238 243 251 263 263 260 263 271 284 289 294 303 312 317 319
225 226 218 212 206 194 185 181 181 185 193 203 208 215 223 225 232 239 233 223 216 221 224 227 227 227 233 237 246 246 246 255 260 261 266 270 284 291 293 300 306 313 314 317
215 208 204 200 192 185 183 182 188 193 198 203 210 216 219 220 222 225 223 225 227 229 234 237 233 231 234 245 251 245 247 257 263 266 268 272 282 291 308 313 314 315 316 320
191 195 191 185 186 185 187 196 203 207 209 214 221 220 218 224 224 225 223 226 232 234 241 241 238 237 243 253 248 241 246 257 263 262 267 273 283 302 311 312 313 315 318 320
Wind_Speed_850mb
21 21 18 19 16 15 18 22 15 29 29 30 9 19 34 28 26 50 56 57 64 71 68 58 51 43 36 31 26 21 15 9 5 5 4 3 4 6 9 10 18 26 26 26
16 29 14 19 21 18 15 18 20 23 23 15 25 40 33 43 41 47 52 76 81 87 81 73 62 49 38 31 27 21 16 12 6 5 3 2 5 4 6 11 17 23 28 28
10 18 6 11 20 18 7 7 11 12 22 15 21 15 10 22 40 54 56 74 91 97 90 76 61 49 39 35 29 22 17 12 7 8 2 3 4 2 6 15 22 25 26 24
6 10 10 13 6 5 12 9 10 11 20 23 8 1 24 22 21 30 36 67 86 93 89 74 55 43 38 32 29 26 22 13 11 8 4 3 3 5 11 18 23 23 23 26
5 10 11 19 2 2 4 13 16 12 19 8 15 1 12 22 7 11 21 50 75 73 76 59 56 48 40 36 33 29 19 14 13 9 7 5 6 10 12 16 16 19 23 25
8 9 7 14 5 11 8 18 12 20 15 8 7 7 8 1 9 23 32 43 65 77 63 62 50 40 40 40 37 28 21 17 15 12 5 8 10 10 12 12 15 21 23 24
15 13 10 4 9 13 6 13 16 21 36 32 10 15 17 26 24 20 31 52 60 61 57 49 46 45 47 44 32 26 22 18 18 10 5 9 8 7 8 10 14 20 26 25
6 8 11 5 17 2 6 23 29 35 40 27 21 17 33 40 35 40 47 48 55 68 57 46 49 52 45 36 32 29 25 18 18 10 4 5 4 8 11 13 15 21 29 29
14 11 11 22 13 22 22 20 29 41 40 22 24 36 46 40 39 44 52 55 53 55 59 58 51 47 41 38 35 32 25 21 20 13 8 4 4 10 14 16 18 22 28 36
4 6 10 22 36 33 22 36 37 30 28 22 34 42 46 43 46 50 50 57 60 61 56 57 51 43 36 41 37 32 28 22 19 15 10 5 5 10 13 16 19 25 29 36
10 9 25 30 17 29 36 35 34 32 32 35 32 53 56 53 55 58 61 60 60 60 59 55 51 46 41 40 38 36 31 25 22 16 11 7 5 7 14 16 20 25 29 34
13 16 25 28 49 40 41 41 53 38 36 42 53 67 61 60 62 66 68 69 62 58 56 54 50 47 45 41 37 33 32 26 23 18 16 10 5 5 6 11 16 20 25 27
39 47 51 58 64 60 47 48 36 23 35 50 58 65 68 68 66 67 64 55 50 54 52 51 48 49 46 44 37 33 31 29 23 21 18 14 11 9 6 4 5 10 20 23
57 50 42 55 38 28 36 25 24 28 38 50 66 63 72 72 68 64 55 50 51 48 50 48 45 49 48 41 33 30 29 26 25 23 20 15 9 6 5 6 8 11 17 25
69 62 57 55 33 26 27 29 26 35 48 51 56 64 63 61 57 53 48 52 49 46 48 44 41 42 46 42 34 30 29 27 28 25 19 13 9 9 10 11 12 16 22 27
29 22 13 25 28 36 36 38 39 42 47 50 52 49 51 53 54 53 58 57 55 55 47 41 36 36 40 39 35 32 30 30 27 21 16 14 13 13 12 13 16 20 25 28
41 25 38 47 40 38 47 45 39 44 50 53 53 49 48 51 55 61 58 53 46 42 40 37 36 37 37 38 36 34 32 29 23 20 19 19 20 18 16 17 19 22 26 30
46 49 44 42 40 50 55 45 42 45 55 58 56 52 56 56 60 60 55 53 52 47 41 36 37 38 39 38 37 35 30 25 24 21 20 21 22 21 20 21 22 24 28 32
63 69 70 61 50 51 60 51 47 49 54 59 58 56 54 52 52 53 55 56 55 51 46 44 45 45 44 43 40 34 31 27 26 25 24 22 22 23 24 25 25 28 31 34
36 40 43 53 53 57 59 53 46 53 53 56 51 49 51 50 50 53 56 57 52 45 43 47 48 48 46 41 37 33 30 31 29 28 29 28 28 28 27 26 28 31 33 34
24 23 40 47 54 54 53 42 49 57 58 53 49 49 46 43 42 44 50 52 46 41 42 44 46 45 45 43 41 40 35 33 33 34 31 28 28 28 28 30 32 33 32 33
15 5 29 45 50 49 42 41 50 52 53 51 46 39 40 40 38 38 37 36 37 43 43 43 44 43 41 39 42 41 36 31 29 32 33 31 29 28 29 31 31 31 32 35
5 11 27 37 39 37 37 40 45 44 48 49 43 40 41 38 38 40 41 37 39 41 40 38 37 40 39 37 41 42 39 35 31 32 34 32 30 30 29 28 30 31 35 38
7 12 15 18 19 28 41 45 41 40 38 35 35 35 35 38 39 37 35 31 31 34 32 35 35 40 40 36 35 38 39 35 33 33 33 30 27 27 29 31 32 35 38 41
9 15 21 24 29 39 44 43 41 41 40 37 36 36 35 34 32 29 35 35 33 30 30 32 37 39 40 38 38 40 39 35 31 28 24 24 26 30 31 31 32 35 38 43
10 14 18 21 28 36 39 41 41 41 40 40 39 38 36 33 32 32 31 34 32 30 29 31 37 39 37 37 37 40 38 32 27 26 27 26 23 23 26 27 31 36 41 45
10 13 17 20 25 28 29 29 31 33 35 35 33 33 32 34 33 30 29 31 28 26 27 29 34 35 34 36 37 38 34 26 23 23 22 21 24 25 28 34 37 40 45 48
Wind_Direction_850mb
258 264 241 242 257 230 210 257 269 273 267 272 201 218 205 226 232 206 206 201 208 195 187 184 180 175 177 175 174 180 187 208 231 290 302 7 355 359 3 350 340 345 348 347
267 263 267 281 275 273 266 259 252 259 263 279 248 244 211 211 223 232 219 209 206 197 190 187 185 180 178 174 180 186 195 201 224 243 199 60 30 357 323 340 346 344 347 347
266 256 322 313 240 232 188 230 233 254 274 297 289 300 306 262 236 232 237 215 198 189 184 182 184 181 178 179 177 189 195 184 186 192 156 36 66 67 352 355 348 349 349 348
272 304 211 245 259 273 232 238 274 307 299 300 264 145 25 8 325 296 255 203 189 184 185 182 179 174 177 180 181 183 177 175 172 166 137 124 96 33 5 350 347 351 355 354
235 242 273 295 6 124 24 299 312 299 307 8 331 217 345 358 322 245 211 188 188 184 180 174 176 176 173 170 176 175 178 167 162 159 137 120 48 21 4 354 355 4 8 4
152 242 247 272 68 78 21 304 43 349 317 288 311 343 267 329 185 161 169 182 187 182 189 184 180 181 168 166 177 175 174 159 159 165 126 71 43 20 10 11 27 25 20 16
226 238 258 298 352 349 180 265 6 348 332 309 238 247 217 179 166 173 179 175 174 184 184 183 177 168 165 172 173 169 162 160 166 165 100 53 38 39 38 40 37 36 28 26
170 222 254 274 336 15 230 312 310 298 295 294 268 195 171 173 165 168 164 165 172 170 177 173 165 170 170 170 170 166 163 169 172 161 106 71 50 64 61 59 51 43 37 32
166 208 228 302 274 311 297 296 315 298 276 247 216 181 185 181 177 172 165 165 168 162 159 165 174 180 177 170 173 171 173 173 179 171 152 111 87 72 71 66 55 44 35 29
111 220 207 282 299 292 274 317 322 301 245 232 203 193 190 186 174 167 169 168 169 163 160 162 173 185 188 175 183 181 183 180 180 186 162 143 110 70 63 50 41 32 23 21
260 290 278 270 261 301 301 301 304 290 263 228 217 197 196 183 176 171 168 168 167 163 165 165 173 178 181 181 188 188 184 179 184 185 183 166 128 79 46 28 26 12 9 4
256 236 256 259 281 296 283 287 297 284 240 213 207 200 194 183 182 174 172 170 175 179 175 171 182 182 178 186 197 197 185 182 187 188 191 186 168 93 47 19 18 343 338 352
257 269 262 270 280 284 271 288 280 251 231 210 202 198 191 180 175 176 177 185 187 176 182 186 187 187 189 192 196 194 193 189 189 193 191 189 184 185 181 191 235 278 317 346
269 265 274 271 259 258 276 252 266 266 227 212 198 190 180 177 180 189 199 193 180 188 193 193 192 192 193 196 190 188 187 187 194 192 189 186 196 220 249 279 296 318 332 343
261 262 268 268 254 253 251 242 228 203 191 189 193 191 189 190 191 190 189 185 190 195 195 197 197 195 194 200 197 193 190 197 193 189 186 197 216 238 264 281 301 319 328 333
257 237 225 277 287 257 230 213 212 198 192 189 189 190 190 192 188 183 185 191 197 197 199 201 203 198 191 188 192 195 194 201 198 193 202 219 236 248 264 290 307 316 322 328
225 265 253 255 247 231 219 221 221 207 195 191 185 189 187 185 185 187 193 200 205 208 208 211 207 197 194 192 193 195 198 206 203 200 214 232 244 256 274 295 306 315 322 327
242 252 256 260 253 219 217 224 216 212 201 195 191 192 190 196 198 197 199 197 198 206 213 212 203 199 196 195 199 197 199 212 219 227 230 231 244 259 277 290 301 312 320 322
254 254 255 253 245 234 224 222 217 212 207 199 200 199 203 205 205 205 203 204 209 213 212 205 202 200 202 204 209 208 213 222 231 237 242 248 251 264 277 282 295 306 313 319
269 261 252 240 228 223 215 216 218 208 206 203 202 199 202 208 211 212 214 218 223 224 212 207 205 205 205 207 215 223 230 237 240 243 250 254 256 264 275 283 294 300 308 316
311 265 236 212 205 205 206 211 208 203 202 206 201 203 209 210 209 210 212 215 214 211 209 210 212 209 209 215 224 228 231 240 244 244 249 257 264 272 278 285 292 298 305 317
344 210 185 187 189 188 198 208 204 202 200 196 200 209 208 205 205 208 218 224 214 210 209 211 214 215 216 221 226 230 238 243 250 253 254 261 269 276 283 286 292 302 311 318
350 175 177 179 182 191 200 200 198 200 197 196 200 206 210 214 213 212 218 215 212 217 219 220 218 218 222 226 228 232 239 250 258 260 261 263 269 276 286 287 298 309 318 319
231 202 192 196 207 207 192 186 190 191 193 198 208 214 216 215 218 224 234 232 221 218 219 221 222 222 228 230 231 238 243 251 263 263 260 263 271 284 289 294 303 312 317 319
225 226 218 212 206 194 185 181 181 185 193 203 208 215 223 225 232 239 233 223 216 221 224 227 227 227 233 237 246 246 246 255 260 261 266 270 284 291 293 300 306 313 314 317
215 208 204 200 192 185 183 182 188 193 198 203 210 216 219 220 222 225 223 225 227 229 234 237 233 231 234 245 251 245 247 257 263 266 268 272 282 291 308 313 314 315 316 320
191 195 191 185 186 185 187 196 203 207 209 214 221 220 218 224 224 225 223 226 232 234 241 241 238 237 243 253 248 241 246 257 263 262 267 273 283 302 311 312 313 315 318 320